OPS 4682 DEB, 38391

Orbit data source: Space-Track

OPS 4682 DEB, 38391 is space debris in LEO originally from a launch on Sat, 03 Apr 1965 UTC launched from the Air Force Western Test Range (AFWTR). Debris objects in space refer to the collection of defunct objects orbiting the Earth. Examples of debris include non-operational satellites, rocket bodies, and fragments generated from explosions, collisions, or faulty payload assembly.

Loading next visibility...
Identifier
38391, 1965-027CU
Orbit
LEO
Country
Flag of USUS
Related business
Manufacturer
Unknown
Mission
Spacecraft
Bus & Motor
Unknown
Mass
Unknown
Launch date (UTC)
1965-04-03 (61 years ago)
Launch vehicle
Unknown
Launch site
Air Force Western Test Range (AFWTR)
Object type
Payload
Rocket body
Debris
Shape & HBR
Unknown shape, 0.1 m
Radar Cross Section
Small (<0.1 m²)

Expand to show TLE details & history
Last TLE update: 6 days ago

TLE from 6 days ago
0 OPS 4682 DEB
1 38391U 65027CU  25344.31317756 -.00000097  00000-0 -35612-3 0  9993
2 38391  90.2167   4.0257 0042735 189.2139 170.8203 12.98241176575260
Epoch: 2025-12-10T07:30Z
TLE epoch observation values (Epoch: 2025-12-10T07:30:58.541Z)
Latitude
0.00003°
Longitude
171.99648°
Altitude
1,304.138 km
Speed
7.189 km/s
True Right ascension
00h 16m 06s
True Declination
0° 00' 00"
Sunlit
Object was in daylight at epoch
Visualization orbit readout
Latitude
Unknown
Longitude
Unknown
Altitude
Unknown
Speed
Unknown
Apparent Right ascension
Unknown
Apparent Declination
Unknown
Sunlit
N/A
Visualization observer readout
Local Sidereal Time
22:10:46
Azimuth
Unknown
Elevation
Unknown
Doppler factor
Unknown
Orbital elements
Apogee altitude
1,298.783 km
Perigee altitude
1,233.447 km
Semi-major axis
7,644.252 km
Eccentricity
0.00427
Inclination
90.2167°
RAAN
4.0257°
Arg. of periapsis
189.2139°
True anomaly
170.89801°
Mean anomaly
170.8203°
Eccentric anomaly
170.8592°
Mean motion
3.24744 °/min
Orbital period
110.86 mins
BSTAR
-0.00035612
Loading maneuver chart data...
Computing Atmospheric mass density...
Loading historical data...
Loading historical data...
Loading historical data...
Loading historical data...
Loading historical data...
Loading historical data...
Loading historical data...

Documentation

Showing up to 5 results
|